Year,Month,Day,Hour,Minute,Value (Times are PST for temperature in C)
2013,05,29,00,00,11.60
2013,05,29,00,01,11.60
2013,05,29,00,02,11.60
2013,05,29,00,03,11.60
2013,05,29,00,04,11.70
2013,05,29,00,05,11.70
2013,05,29,00,06,11.70
2013,05,29,00,07,11.70
2013,05,29,00,08,11.60
2013,05,29,00,09,11.60
2013,05,29,00,10,11.60
2013,05,29,00,11,11.60
2013,05,29,00,12,11.60
2013,05,29,00,13,11.60
2013,05,29,00,14,11.60
2013,05,29,00,15,11.60
2013,05,29,00,16,11.50
2013,05,29,00,17,11.40
2013,05,29,00,18,11.30
2013,05,29,00,19,11.30
2013,05,29,00,20,11.20
2013,05,29,00,21,11.20
2013,05,29,00,22,11.20
2013,05,29,00,23,11.20
2013,05,29,00,24,11.20
2013,05,29,00,25,11.20
2013,05,29,00,26,11.20
2013,05,29,00,27,11.20
2013,05,29,00,28,11.20
2013,05,29,00,29,11.20
2013,05,29,00,30,11.20
2013,05,29,00,31,11.20
2013,05,29,00,32,11.20
2013,05,29,00,33,11.20
2013,05,29,00,34,11.20
2013,05,29,00,35,11.20
2013,05,29,00,36,11.20
2013,05,29,00,37,11.20
2013,05,29,00,38,11.20
2013,05,29,00,39,11.20
2013,05,29,00,40,11.20
2013,05,29,00,41,11.20
2013,05,29,00,42,11.20
2013,05,29,00,43,11.20
2013,05,29,00,44,11.20
2013,05,29,00,45,11.20
2013,05,29,00,46,11.20
2013,05,29,00,47,11.20
2013,05,29,00,48,11.20
2013,05,29,00,49,11.10
2013,05,29,00,50,11.10
2013,05,29,00,51,11.10
2013,05,29,00,52,11.10
2013,05,29,00,53,11.10
2013,05,29,00,54,11.10
2013,05,29,00,55,11.10
2013,05,29,00,56,11.10
2013,05,29,00,57,11.10
2013,05,29,00,58,11.10
2013,05,29,00,59,11.10
2013,05,29,01,00,11.10
2013,05,29,01,01,11.10
2013,05,29,01,02,11.10
2013,05,29,01,03,11.10
2013,05,29,01,04,11.10
2013,05,29,01,05,11.10
2013,05,29,01,06,11.10
2013,05,29,01,07,11.10
2013,05,29,01,08,11.10
2013,05,29,01,09,11.10
2013,05,29,01,10,11.10
2013,05,29,01,11,11.10
2013,05,29,01,12,11.10
2013,05,29,01,13,11.10
2013,05,29,01,14,11.10
2013,05,29,01,15,11.10
2013,05,29,01,16,11.10
2013,05,29,01,17,11.10
2013,05,29,01,18,11.10
2013,05,29,01,19,11.10
2013,05,29,01,20,11.10
2013,05,29,01,21,11.10
2013,05,29,01,22,11.10
2013,05,29,01,23,11.10
2013,05,29,01,24,11.10
2013,05,29,01,25,11.10
2013,05,29,01,26,11.10
2013,05,29,01,27,11.10
2013,05,29,01,28,11.10
2013,05,29,01,29,11.10
2013,05,29,01,30,11.10
2013,05,29,01,31,11.10
2013,05,29,01,32,11.10
2013,05,29,01,33,11.10
2013,05,29,01,34,11.10
2013,05,29,01,35,11.10
2013,05,29,01,36,11.10
2013,05,29,01,37,11.10
2013,05,29,01,38,11.10
2013,05,29,01,39,11.10
2013,05,29,01,40,11.10
2013,05,29,01,41,11.10
2013,05,29,01,42,11.10
2013,05,29,01,43,11.10
2013,05,29,01,44,11.10
2013,05,29,01,45,11.10
2013,05,29,01,46,11.10
2013,05,29,01,47,11.10
2013,05,29,01,48,11.10
2013,05,29,01,49,11.10
2013,05,29,01,50,11.10
2013,05,29,01,51,11.10
2013,05,29,01,52,11.10
2013,05,29,01,53,11.10
2013,05,29,01,54,11.10
2013,05,29,01,55,11.10
2013,05,29,01,56,11.10
2013,05,29,01,57,11.00
2013,05,29,01,58,10.90
2013,05,29,01,59,10.90
2013,05,29,02,00,10.90
2013,05,29,02,01,10.90
2013,05,29,02,02,10.90
2013,05,29,02,03,10.90
2013,05,29,02,04,10.90
2013,05,29,02,05,10.90
2013,05,29,02,06,10.90
2013,05,29,02,07,10.90
2013,05,29,02,08,10.90
2013,05,29,02,09,10.90
2013,05,29,02,10,10.90
2013,05,29,02,11,10.80
2013,05,29,02,12,10.80
2013,05,29,02,13,10.70
2013,05,29,02,14,10.70
2013,05,29,02,15,10.70
2013,05,29,02,16,10.70
2013,05,29,02,17,10.70
2013,05,29,02,18,10.70
2013,05,29,02,19,10.60
2013,05,29,02,20,10.60
2013,05,29,02,21,10.60
2013,05,29,02,22,10.60
2013,05,29,02,23,10.60
2013,05,29,02,24,10.60
2013,05,29,02,25,10.60
2013,05,29,02,26,10.60
2013,05,29,02,27,10.60
2013,05,29,02,28,10.60
2013,05,29,02,29,10.60
2013,05,29,02,30,10.50
2013,05,29,02,31,10.40
2013,05,29,02,32,10.40
2013,05,29,02,33,10.40
2013,05,29,02,34,10.40
2013,05,29,02,35,10.40
2013,05,29,02,36,10.40
2013,05,29,02,37,10.40
2013,05,29,02,38,10.40
2013,05,29,02,39,10.40
2013,05,29,02,40,10.40
2013,05,29,02,41,10.40
2013,05,29,02,42,10.40
2013,05,29,02,43,10.40
2013,05,29,02,44,10.40
2013,05,29,02,45,10.40
2013,05,29,02,46,10.40
2013,05,29,02,47,10.40
2013,05,29,02,48,10.40
2013,05,29,02,49,10.30
2013,05,29,02,50,10.30
2013,05,29,02,51,10.30
2013,05,29,02,52,10.30
2013,05,29,02,53,10.30
2013,05,29,02,54,10.20
2013,05,29,02,55,10.20
2013,05,29,02,56,10.20
2013,05,29,02,57,10.20
2013,05,29,02,58,10.20
2013,05,29,02,59,10.10
2013,05,29,03,00,10.10
2013,05,29,03,01,10.10
2013,05,29,03,02,10.10
2013,05,29,03,03,10.20
2013,05,29,03,04,10.20
2013,05,29,03,05,10.20
2013,05,29,03,06,10.20
2013,05,29,03,07,10.20
2013,05,29,03,08,10.20
2013,05,29,03,09,10.30
2013,05,29,03,10,10.30
2013,05,29,03,11,10.30
2013,05,29,03,12,10.30
2013,05,29,03,13,10.40
2013,05,29,03,14,10.40
2013,05,29,03,15,10.40
2013,05,29,03,16,10.40
2013,05,29,03,17,10.40
2013,05,29,03,18,10.40
2013,05,29,03,19,10.40
2013,05,29,03,20,10.40
2013,05,29,03,21,10.40
2013,05,29,03,22,10.40
2013,05,29,03,23,10.40
2013,05,29,03,24,10.40
2013,05,29,03,25,10.40
2013,05,29,03,26,10.40
2013,05,29,03,27,10.40
2013,05,29,03,28,10.40
2013,05,29,03,29,10.40
2013,05,29,03,30,10.40
2013,05,29,03,31,10.40
2013,05,29,03,32,10.30
2013,05,29,03,33,10.30
2013,05,29,03,34,10.30
2013,05,29,03,35,10.30
2013,05,29,03,36,10.30
2013,05,29,03,37,10.30
2013,05,29,03,38,10.30
2013,05,29,03,39,10.20
2013,05,29,03,40,10.20
2013,05,29,03,41,10.20
2013,05,29,03,42,10.10
2013,05,29,03,43,10.10
2013,05,29,03,44,10.10
2013,05,29,03,45,10.10
2013,05,29,03,46,10.10
2013,05,29,03,47,10.10
2013,05,29,03,48,10.00
2013,05,29,03,49,9.90
2013,05,29,03,50,9.90
2013,05,29,03,51,9.90
2013,05,29,03,52,9.90
2013,05,29,03,53,9.90
2013,05,29,03,54,9.90
2013,05,29,03,55,10.10
2013,05,29,03,56,10.10
2013,05,29,03,57,10.10
2013,05,29,03,58,10.10
2013,05,29,03,59,10.10
2013,05,29,04,00,10.10
2013,05,29,04,01,10.10
2013,05,29,04,02,10.10
2013,05,29,04,03,10.10
2013,05,29,04,04,10.10
2013,05,29,04,05,10.10
2013,05,29,04,06,10.10
2013,05,29,04,07,10.10
2013,05,29,04,08,10.20
2013,05,29,04,09,10.20
2013,05,29,04,10,10.20
2013,05,29,04,11,10.20
2013,05,29,04,12,10.20
2013,05,29,04,13,10.30
2013,05,29,04,14,10.30
2013,05,29,04,15,10.30
2013,05,29,04,16,10.30
2013,05,29,04,17,10.30
2013,05,29,04,18,10.30
2013,05,29,04,19,10.30
2013,05,29,04,20,10.30
2013,05,29,04,21,10.30
2013,05,29,04,22,10.20
2013,05,29,04,23,10.20
2013,05,29,04,24,10.20
2013,05,29,04,25,10.20
2013,05,29,04,26,10.20
2013,05,29,04,27,10.20
2013,05,29,04,28,10.20
2013,05,29,04,29,10.20
2013,05,29,04,30,10.20
2013,05,29,04,31,10.20
2013,05,29,04,32,10.20
2013,05,29,04,33,10.20
2013,05,29,04,34,10.20
2013,05,29,04,35,10.20
2013,05,29,04,36,10.20
2013,05,29,04,37,10.30
2013,05,29,04,38,10.30
2013,05,29,04,39,10.30
2013,05,29,04,40,10.30
2013,05,29,04,41,10.30
2013,05,29,04,42,10.30
2013,05,29,04,43,10.30
2013,05,29,04,44,10.30
2013,05,29,04,45,10.30
2013,05,29,04,46,10.30
2013,05,29,04,47,10.30
2013,05,29,04,48,10.30
2013,05,29,04,49,10.30
2013,05,29,04,50,10.30
2013,05,29,04,51,10.30
2013,05,29,04,52,10.20
2013,05,29,04,53,10.20
2013,05,29,04,54,10.20
2013,05,29,04,55,10.20
2013,05,29,04,56,10.20
2013,05,29,04,57,10.20
2013,05,29,04,58,10.20
2013,05,29,04,59,10.20
2013,05,29,05,00,10.20
2013,05,29,05,01,10.20
2013,05,29,05,02,10.20
2013,05,29,05,03,10.20
2013,05,29,05,04,10.20
2013,05,29,05,05,10.20
2013,05,29,05,06,10.20
2013,05,29,05,07,10.20
2013,05,29,05,08,10.20
2013,05,29,05,09,10.20
2013,05,29,05,10,10.20
2013,05,29,05,11,10.20
2013,05,29,05,12,10.20
2013,05,29,05,13,10.30
2013,05,29,05,14,10.30
2013,05,29,05,15,10.30
2013,05,29,05,16,10.30
2013,05,29,05,17,10.30
2013,05,29,05,18,10.30
2013,05,29,05,19,10.30
2013,05,29,05,20,10.30
2013,05,29,05,21,10.30
2013,05,29,05,22,10.30
2013,05,29,05,23,10.30
2013,05,29,05,24,10.20
2013,05,29,05,25,10.20
2013,05,29,05,26,10.20
2013,05,29,05,27,10.20
2013,05,29,05,28,10.20
2013,05,29,05,29,10.20
2013,05,29,05,30,10.20
2013,05,29,05,31,10.20
2013,05,29,05,32,10.20
2013,05,29,05,33,10.20
2013,05,29,05,34,10.20
2013,05,29,05,35,10.20
2013,05,29,05,36,10.20
2013,05,29,05,37,10.20
2013,05,29,05,38,10.20
2013,05,29,05,39,10.20
2013,05,29,05,40,10.20
2013,05,29,05,41,10.10
2013,05,29,05,42,10.10
2013,05,29,05,43,10.10
2013,05,29,05,44,10.10
2013,05,29,05,45,10.10
2013,05,29,05,46,10.10
2013,05,29,05,47,10.10
2013,05,29,05,48,10.10
2013,05,29,05,49,10.10
2013,05,29,05,50,10.10
2013,05,29,05,51,10.10
2013,05,29,05,52,10.10
2013,05,29,05,53,10.10
2013,05,29,05,54,10.10
2013,05,29,05,55,10.10
2013,05,29,05,56,10.10
2013,05,29,05,57,10.10
2013,05,29,05,58,10.10
2013,05,29,05,59,10.10
2013,05,29,06,00,10.10
2013,05,29,06,01,10.10
2013,05,29,06,02,10.10
2013,05,29,06,03,10.10
2013,05,29,06,04,10.10
2013,05,29,06,05,10.10
2013,05,29,06,06,10.10
2013,05,29,06,07,10.10
2013,05,29,06,08,10.10
2013,05,29,06,09,10.10
2013,05,29,06,10,10.10
2013,05,29,06,11,10.10
2013,05,29,06,12,10.10
2013,05,29,06,13,10.10
2013,05,29,06,14,10.10
2013,05,29,06,15,10.20
2013,05,29,06,16,10.20
2013,05,29,06,17,10.20
2013,05,29,06,18,10.20
2013,05,29,06,19,10.20
2013,05,29,06,20,10.20
2013,05,29,06,21,10.20
2013,05,29,06,22,10.20
2013,05,29,06,23,10.20
2013,05,29,06,24,10.20
2013,05,29,06,25,10.20
2013,05,29,06,26,10.20
2013,05,29,06,27,10.20
2013,05,29,06,28,10.20
2013,05,29,06,29,10.20
2013,05,29,06,30,10.20
2013,05,29,06,31,10.20
2013,05,29,06,32,10.20
2013,05,29,06,33,10.20
2013,05,29,06,34,10.20
2013,05,29,06,35,10.20
2013,05,29,06,36,10.20
2013,05,29,06,37,10.20
2013,05,29,06,38,10.20
2013,05,29,06,39,10.20
2013,05,29,06,40,10.20
2013,05,29,06,41,10.20
2013,05,29,06,42,10.20
2013,05,29,06,43,10.20
2013,05,29,06,44,10.20
2013,05,29,06,45,10.20
2013,05,29,06,46,10.20
2013,05,29,06,47,10.30
2013,05,29,06,48,10.30
2013,05,29,06,49,10.30
2013,05,29,06,50,10.30
2013,05,29,06,51,10.30
2013,05,29,06,52,10.30
2013,05,29,06,53,10.30
2013,05,29,06,54,10.30
2013,05,29,06,55,10.30
2013,05,29,06,56,10.30
2013,05,29,06,57,10.30
2013,05,29,06,58,10.30
2013,05,29,06,59,10.30
2013,05,29,07,00,10.30
2013,05,29,07,01,10.30
2013,05,29,07,02,10.30
2013,05,29,07,03,10.30
2013,05,29,07,04,10.30
2013,05,29,07,05,10.30
2013,05,29,07,06,10.30
2013,05,29,07,07,10.30
2013,05,29,07,08,10.30
2013,05,29,07,09,10.30
2013,05,29,07,10,10.30
2013,05,29,07,11,10.30
2013,05,29,07,12,10.30
2013,05,29,07,13,10.30
2013,05,29,07,14,10.30
2013,05,29,07,15,10.30
2013,05,29,07,16,10.20
2013,05,29,07,17,10.20
2013,05,29,07,18,10.30
2013,05,29,07,19,10.30
2013,05,29,07,20,10.30
2013,05,29,07,21,10.30
2013,05,29,07,22,10.30
2013,05,29,07,23,10.30
2013,05,29,07,24,10.30
2013,05,29,07,25,10.30
2013,05,29,07,26,10.30
2013,05,29,07,27,10.30
2013,05,29,07,28,10.40
2013,05,29,07,29,10.40
2013,05,29,07,30,10.30
2013,05,29,07,31,10.30
2013,05,29,07,32,10.30
2013,05,29,07,33,10.30
2013,05,29,07,34,10.30
2013,05,29,07,35,10.30
2013,05,29,07,36,10.30
2013,05,29,07,37,10.30
2013,05,29,07,38,10.30
2013,05,29,07,39,10.30
2013,05,29,07,40,10.30
2013,05,29,07,41,10.30
2013,05,29,07,42,10.40
2013,05,29,07,43,10.40
2013,05,29,07,44,10.40
2013,05,29,07,45,10.40
2013,05,29,07,46,10.40
2013,05,29,07,47,10.60
2013,05,29,07,48,10.60
2013,05,29,07,49,10.60
2013,05,29,07,50,10.60
2013,05,29,07,51,10.60
2013,05,29,07,52,10.70
2013,05,29,07,53,10.70
2013,05,29,07,54,10.70
2013,05,29,07,55,10.70
2013,05,29,07,56,10.70
2013,05,29,07,57,10.70
2013,05,29,07,58,10.70
2013,05,29,07,59,10.80
2013,05,29,08,00,10.80
2013,05,29,08,01,10.80
2013,05,29,08,02,10.80
2013,05,29,08,03,10.80
2013,05,29,08,04,10.80
2013,05,29,08,05,10.80
2013,05,29,08,06,10.80
2013,05,29,08,07,10.80
2013,05,29,08,08,10.80
2013,05,29,08,09,10.80
2013,05,29,08,10,10.80
2013,05,29,08,11,10.80
2013,05,29,08,12,10.80
2013,05,29,08,13,10.90
2013,05,29,08,14,10.90
2013,05,29,08,15,10.80
2013,05,29,08,16,10.80
2013,05,29,08,17,10.80
2013,05,29,08,18,10.90
2013,05,29,08,19,10.90
2013,05,29,08,20,10.90
2013,05,29,08,21,11.00
2013,05,29,08,22,11.10
2013,05,29,08,23,11.10
2013,05,29,08,24,11.10
2013,05,29,08,25,11.10
2013,05,29,08,26,11.10
2013,05,29,08,27,11.10
2013,05,29,08,28,11.10
2013,05,29,08,29,11.10
2013,05,29,08,30,11.10
2013,05,29,08,31,11.10
2013,05,29,08,32,11.10
2013,05,29,08,33,11.10
2013,05,29,08,34,11.10
2013,05,29,08,35,11.10
2013,05,29,08,36,11.10
2013,05,29,08,37,11.10
2013,05,29,08,38,11.10
2013,05,29,08,39,11.10
2013,05,29,08,40,11.10
2013,05,29,08,41,11.10
2013,05,29,08,42,11.10
2013,05,29,08,43,11.10
2013,05,29,08,44,11.00
2013,05,29,08,45,10.90
2013,05,29,08,46,10.90
2013,05,29,08,47,10.90
2013,05,29,08,48,10.90
2013,05,29,08,49,10.90
2013,05,29,08,50,10.90
2013,05,29,08,51,10.90
2013,05,29,08,52,10.90
2013,05,29,08,53,10.90
2013,05,29,08,54,10.90
2013,05,29,08,55,10.90
2013,05,29,08,56,10.90
2013,05,29,08,57,10.90
2013,05,29,08,58,10.90
2013,05,29,08,59,10.90
2013,05,29,09,00,10.80
2013,05,29,09,01,10.80
2013,05,29,09,02,10.80
2013,05,29,09,03,10.80
2013,05,29,09,04,10.80
2013,05,29,09,05,10.70
2013,05,29,09,06,10.70
2013,05,29,09,07,10.70
2013,05,29,09,08,10.70
2013,05,29,09,09,10.70
2013,05,29,09,10,10.70
2013,05,29,09,11,10.70
2013,05,29,09,12,10.60
2013,05,29,09,13,10.60
2013,05,29,09,14,10.60
2013,05,29,09,15,10.60
2013,05,29,09,16,10.70
2013,05,29,09,17,10.70
2013,05,29,09,18,10.70
2013,05,29,09,19,10.70
2013,05,29,09,20,10.70
2013,05,29,09,21,10.70
2013,05,29,09,22,10.60
2013,05,29,09,23,10.60
2013,05,29,09,24,10.60
2013,05,29,09,25,10.70
2013,05,29,09,26,10.70
2013,05,29,09,27,10.70
2013,05,29,09,28,10.70
2013,05,29,09,29,10.60
2013,05,29,09,30,10.60
2013,05,29,09,31,10.60
2013,05,29,09,32,10.60
2013,05,29,09,33,10.60
2013,05,29,09,34,10.60
2013,05,29,09,35,10.60
2013,05,29,09,36,10.60
2013,05,29,09,37,10.50
2013,05,29,09,38,10.40
2013,05,29,09,39,10.40
2013,05,29,09,40,10.40
2013,05,29,09,41,10.40
2013,05,29,09,42,10.40
2013,05,29,09,43,10.40
2013,05,29,09,44,10.40
2013,05,29,09,45,10.40
2013,05,29,09,46,10.40
2013,05,29,09,47,10.50
2013,05,29,09,48,10.60
2013,05,29,09,49,10.60
2013,05,29,09,50,10.60
2013,05,29,09,51,10.60
2013,05,29,09,52,10.60
2013,05,29,09,53,10.60
2013,05,29,09,54,10.40
2013,05,29,09,55,10.40
2013,05,29,09,56,10.40
2013,05,29,09,57,10.40
2013,05,29,09,58,10.40
2013,05,29,09,59,10.40
2013,05,29,10,00,10.60
2013,05,29,10,01,10.50
2013,05,29,10,02,10.40
2013,05,29,10,03,10.40
2013,05,29,10,04,10.40
2013,05,29,10,05,10.40
2013,05,29,10,06,10.40
2013,05,29,10,07,10.30
2013,05,29,10,08,10.30
2013,05,29,10,09,10.30
2013,05,29,10,10,10.40
2013,05,29,10,11,10.40
2013,05,29,10,12,10.40
2013,05,29,10,13,10.40
2013,05,29,10,14,10.50
2013,05,29,10,15,10.60
2013,05,29,10,16,10.50
2013,05,29,10,17,10.40
2013,05,29,10,18,10.50
2013,05,29,10,19,10.60
2013,05,29,10,20,10.60
2013,05,29,10,21,10.60
2013,05,29,10,22,10.60
2013,05,29,10,23,10.60
2013,05,29,10,24,10.60
2013,05,29,10,25,10.60
2013,05,29,10,26,10.70
2013,05,29,10,27,10.70
2013,05,29,10,28,10.80
2013,05,29,10,29,10.80
2013,05,29,10,30,10.80
2013,05,29,10,31,10.70
2013,05,29,10,32,10.70
2013,05,29,10,33,10.70
2013,05,29,10,34,10.70
2013,05,29,10,35,10.70
2013,05,29,10,36,10.70
2013,05,29,10,37,10.80
2013,05,29,10,38,10.80
2013,05,29,10,39,10.80
2013,05,29,10,40,10.90
2013,05,29,10,41,10.90
2013,05,29,10,42,10.90
2013,05,29,10,43,10.90
2013,05,29,10,44,10.90
2013,05,29,10,45,10.90
2013,05,29,10,46,10.90
2013,05,29,10,47,10.90
2013,05,29,10,48,11.00
2013,05,29,10,49,11.10
2013,05,29,10,50,11.10
2013,05,29,10,51,11.10
2013,05,29,10,52,11.20
2013,05,29,10,53,11.20
2013,05,29,10,54,11.10
2013,05,29,10,55,11.10
2013,05,29,10,56,11.00
2013,05,29,10,57,11.10
2013,05,29,10,58,11.10
2013,05,29,10,59,11.10
2013,05,29,11,00,11.10
2013,05,29,11,01,11.10
2013,05,29,11,02,10.90
2013,05,29,11,03,10.90
2013,05,29,11,04,10.90
2013,05,29,11,05,10.90
2013,05,29,11,06,10.90
2013,05,29,11,07,10.90
2013,05,29,11,08,11.00
2013,05,29,11,09,11.10
2013,05,29,11,10,11.10
2013,05,29,11,11,11.10
2013,05,29,11,12,11.10
2013,05,29,11,13,11.10
2013,05,29,11,14,11.10
2013,05,29,11,15,11.00
2013,05,29,11,16,11.10
2013,05,29,11,17,11.10
2013,05,29,11,18,11.10
2013,05,29,11,19,11.10
2013,05,29,11,20,11.10
2013,05,29,11,21,11.10
2013,05,29,11,22,11.10
2013,05,29,11,23,11.10
2013,05,29,11,24,11.10
2013,05,29,11,25,11.10
2013,05,29,11,26,11.10
2013,05,29,11,27,11.10
2013,05,29,11,28,11.10
2013,05,29,11,29,11.10
2013,05,29,11,30,11.10
2013,05,29,11,31,11.00
2013,05,29,11,32,10.90
2013,05,29,11,33,10.90
2013,05,29,11,34,10.90
2013,05,29,11,35,10.90
2013,05,29,11,36,10.90
2013,05,29,11,37,10.90
2013,05,29,11,38,10.90
2013,05,29,11,39,10.90
2013,05,29,11,40,10.90
2013,05,29,11,41,10.90
2013,05,29,11,42,10.90
2013,05,29,11,43,11.00
2013,05,29,11,44,11.10
2013,05,29,11,45,11.10
2013,05,29,11,46,11.10
2013,05,29,11,47,11.10
2013,05,29,11,48,11.10
2013,05,29,11,49,11.10
2013,05,29,11,50,11.10
2013,05,29,11,51,11.20
2013,05,29,11,52,11.20
2013,05,29,11,53,11.20
2013,05,29,11,54,11.20
2013,05,29,11,55,11.10
2013,05,29,11,56,11.10
2013,05,29,11,57,11.20
2013,05,29,11,58,11.20
2013,05,29,11,59,11.20
2013,05,29,12,00,11.20
2013,05,29,12,01,11.20
2013,05,29,12,02,11.10
2013,05,29,12,03,11.10
2013,05,29,12,04,11.10
2013,05,29,12,05,11.10
2013,05,29,12,06,11.10
2013,05,29,12,07,11.10
2013,05,29,12,08,11.20
2013,05,29,12,09,11.10
2013,05,29,12,10,11.10
2013,05,29,12,11,11.00
2013,05,29,12,12,10.90
2013,05,29,12,13,10.90
2013,05,29,12,14,11.00
2013,05,29,12,15,11.10
2013,05,29,12,16,11.00
2013,05,29,12,17,10.90
2013,05,29,12,18,10.90
2013,05,29,12,19,10.90
2013,05,29,12,20,10.90
2013,05,29,12,21,10.90
2013,05,29,12,22,10.90
2013,05,29,12,23,10.90
2013,05,29,12,24,10.90
2013,05,29,12,25,10.90
2013,05,29,12,26,10.90
2013,05,29,12,27,10.90
2013,05,29,12,28,10.90
2013,05,29,12,29,10.90
2013,05,29,12,30,11.00
2013,05,29,12,31,11.10
2013,05,29,12,32,11.10
2013,05,29,12,33,11.10
2013,05,29,12,34,11.10
2013,05,29,12,35,11.10
2013,05,29,12,36,11.10
2013,05,29,12,37,11.10
2013,05,29,12,38,11.10
2013,05,29,12,39,11.10
2013,05,29,12,40,11.20
2013,05,29,12,41,11.20
2013,05,29,12,42,11.20
2013,05,29,12,43,11.20
2013,05,29,12,44,11.20
2013,05,29,12,45,11.30
2013,05,29,12,46,11.30
2013,05,29,12,47,11.30
2013,05,29,12,48,11.30
2013,05,29,12,49,11.30
2013,05,29,12,50,11.30
2013,05,29,12,51,11.30
2013,05,29,12,52,11.40
2013,05,29,12,53,11.40
2013,05,29,12,54,11.40
2013,05,29,12,55,11.40
2013,05,29,12,56,11.40
2013,05,29,12,57,11.50
2013,05,29,12,58,11.60
2013,05,29,12,59,11.60
2013,05,29,13,00,11.60
2013,05,29,13,01,11.60
2013,05,29,13,02,11.60
2013,05,29,13,03,11.70
2013,05,29,13,04,11.70
2013,05,29,13,05,11.80
2013,05,29,13,06,11.80
2013,05,29,13,07,11.80
2013,05,29,13,08,11.80
2013,05,29,13,09,11.80
2013,05,29,13,10,11.80
2013,05,29,13,11,11.80
2013,05,29,13,12,11.80
2013,05,29,13,13,11.80
2013,05,29,13,14,11.80
2013,05,29,13,15,11.90
2013,05,29,13,16,11.90
2013,05,29,13,17,12.00
2013,05,29,13,18,12.00
2013,05,29,13,19,12.00
2013,05,29,13,20,12.10
2013,05,29,13,21,12.10
2013,05,29,13,22,12.10
2013,05,29,13,23,12.10
2013,05,29,13,24,12.20
2013,05,29,13,25,12.20
2013,05,29,13,26,12.20
2013,05,29,13,27,12.20
2013,05,29,13,28,12.20
2013,05,29,13,29,12.20
2013,05,29,13,30,12.20
2013,05,29,13,31,12.30
2013,05,29,13,32,12.30
2013,05,29,13,33,12.30
2013,05,29,13,34,12.30
2013,05,29,13,35,12.30
2013,05,29,13,36,12.30
2013,05,29,13,37,12.30
2013,05,29,13,38,12.30
2013,05,29,13,39,12.30
2013,05,29,13,40,12.30
2013,05,29,13,41,12.40
2013,05,29,13,42,12.40
2013,05,29,13,43,12.30
2013,05,29,13,44,12.30
2013,05,29,13,45,12.30
2013,05,29,13,46,12.30
2013,05,29,13,47,12.30
2013,05,29,13,48,12.30
2013,05,29,13,49,12.40
2013,05,29,13,50,12.40
2013,05,29,13,51,12.40
2013,05,29,13,52,12.50
2013,05,29,13,53,12.50
2013,05,29,13,54,12.60
2013,05,29,13,55,12.70
2013,05,29,13,56,12.70
2013,05,29,13,57,12.70
2013,05,29,13,58,12.80
2013,05,29,13,59,12.80
2013,05,29,14,00,12.80
2013,05,29,14,01,12.80
2013,05,29,14,02,12.90
2013,05,29,14,03,12.90
2013,05,29,14,04,12.90
2013,05,29,14,05,13.00
2013,05,29,14,06,13.00
2013,05,29,14,07,13.10
2013,05,29,14,08,13.10
2013,05,29,14,09,13.20
2013,05,29,14,10,13.10
2013,05,29,14,11,13.20
2013,05,29,14,12,13.20
2013,05,29,14,13,13.20
2013,05,29,14,14,13.20
2013,05,29,14,15,13.30
2013,05,29,14,16,13.30
2013,05,29,14,17,13.30
2013,05,29,14,18,13.30
2013,05,29,14,19,13.30
2013,05,29,14,20,13.40
2013,05,29,14,21,13.50
2013,05,29,14,22,13.50
2013,05,29,14,23,13.60
2013,05,29,14,24,13.60
2013,05,29,14,25,13.70
2013,05,29,14,26,13.70
2013,05,29,14,27,13.60
2013,05,29,14,28,13.70
2013,05,29,14,29,13.70
2013,05,29,14,30,13.70
2013,05,29,14,31,13.80
2013,05,29,14,32,13.80
2013,05,29,14,33,13.90
2013,05,29,14,34,13.90
2013,05,29,14,35,13.90
2013,05,29,14,36,14.00
2013,05,29,14,37,14.00
2013,05,29,14,38,14.10
2013,05,29,14,39,14.20
2013,05,29,14,40,14.20
2013,05,29,14,41,14.20
2013,05,29,14,42,14.20
2013,05,29,14,43,14.20
2013,05,29,14,44,14.20
2013,05,29,14,45,14.20
2013,05,29,14,46,14.20
2013,05,29,14,47,14.30
2013,05,29,14,48,14.30
2013,05,29,14,49,14.30
2013,05,29,14,50,14.30
2013,05,29,14,51,14.30
2013,05,29,14,52,14.40
2013,05,29,14,53,14.40
2013,05,29,14,54,14.50
2013,05,29,14,55,14.50
2013,05,29,14,56,14.50
2013,05,29,14,57,14.50
2013,05,29,14,58,14.60
2013,05,29,14,59,14.60
2013,05,29,15,00,14.60
2013,05,29,15,01,14.60
2013,05,29,15,02,14.70
2013,05,29,15,03,14.70
2013,05,29,15,04,14.70
2013,05,29,15,05,14.70
2013,05,29,15,06,14.80
2013,05,29,15,07,14.80
2013,05,29,15,08,14.80
2013,05,29,15,09,14.80
2013,05,29,15,10,14.90
2013,05,29,15,11,14.90
2013,05,29,15,12,14.80
2013,05,29,15,13,14.80
2013,05,29,15,14,14.80
2013,05,29,15,15,14.80
2013,05,29,15,16,14.80
2013,05,29,15,17,14.80
2013,05,29,15,18,14.70
2013,05,29,15,19,14.70
2013,05,29,15,20,14.70
2013,05,29,15,21,14.60
2013,05,29,15,22,14.60
2013,05,29,15,23,14.60
2013,05,29,15,24,14.60
2013,05,29,15,25,14.60
2013,05,29,15,26,14.60
2013,05,29,15,27,14.60
2013,05,29,15,28,14.50
2013,05,29,15,29,14.50
2013,05,29,15,30,14.50
2013,05,29,15,31,14.40
2013,05,29,15,32,14.40
2013,05,29,15,33,14.30
2013,05,29,15,34,14.30
2013,05,29,15,35,14.30
2013,05,29,15,36,14.30
2013,05,29,15,37,14.20
2013,05,29,15,38,14.20
2013,05,29,15,39,14.20
2013,05,29,15,40,14.20
2013,05,29,15,41,14.20
2013,05,29,15,42,14.20
2013,05,29,15,43,14.20
2013,05,29,15,44,14.20
2013,05,29,15,45,14.20
2013,05,29,15,46,14.20
2013,05,29,15,47,14.20
2013,05,29,15,48,14.20
2013,05,29,15,49,14.20
2013,05,29,15,50,14.10
2013,05,29,15,51,14.10
2013,05,29,15,52,14.00
2013,05,29,15,53,14.00
2013,05,29,15,54,14.00
2013,05,29,15,55,14.00
2013,05,29,15,56,13.90
2013,05,29,15,57,13.90
2013,05,29,15,58,13.90
2013,05,29,15,59,14.00
2013,05,29,16,00,14.00
2013,05,29,16,01,14.00
2013,05,29,16,02,14.00
2013,05,29,16,03,14.00
2013,05,29,16,04,14.00
2013,05,29,16,05,14.00
2013,05,29,16,06,14.00
2013,05,29,16,07,14.00
2013,05,29,16,08,14.00
2013,05,29,16,09,14.00
2013,05,29,16,10,13.90
2013,05,29,16,11,13.90
2013,05,29,16,12,13.90
2013,05,29,16,13,13.80
2013,05,29,16,14,13.80
2013,05,29,16,15,13.80
2013,05,29,16,16,13.80
2013,05,29,16,17,13.80
2013,05,29,16,18,13.80
2013,05,29,16,19,13.80
2013,05,29,16,20,13.90
2013,05,29,16,21,13.90
2013,05,29,16,22,13.90
2013,05,29,16,23,13.90
2013,05,29,16,24,13.90
2013,05,29,16,25,14.00
2013,05,29,16,26,14.00
2013,05,29,16,27,14.00
2013,05,29,16,28,14.00
2013,05,29,16,29,14.10
2013,05,29,16,30,14.10
2013,05,29,16,31,14.10
2013,05,29,16,32,14.10
2013,05,29,16,33,14.10
2013,05,29,16,34,14.10
2013,05,29,16,35,14.10
2013,05,29,16,36,14.20
2013,05,29,16,37,14.20
2013,05,29,16,38,14.20
2013,05,29,16,39,14.20
2013,05,29,16,40,14.20
2013,05,29,16,41,14.30
2013,05,29,16,42,14.30
2013,05,29,16,43,14.30
2013,05,29,16,44,14.20
2013,05,29,16,45,14.20
2013,05,29,16,46,14.20
2013,05,29,16,47,14.20
2013,05,29,16,48,14.20
2013,05,29,16,49,14.20
2013,05,29,16,50,14.20
2013,05,29,16,51,14.20
2013,05,29,16,52,14.20
2013,05,29,16,53,14.20
2013,05,29,16,54,14.20
2013,05,29,16,55,14.20
2013,05,29,16,56,14.20
2013,05,29,16,57,14.20
2013,05,29,16,58,14.10
2013,05,29,16,59,14.10
2013,05,29,17,00,14.10
2013,05,29,17,01,14.10
2013,05,29,17,02,14.10
2013,05,29,17,03,14.10
2013,05,29,17,04,14.10
2013,05,29,17,05,14.00
2013,05,29,17,06,14.00
2013,05,29,17,07,14.00
2013,05,29,17,08,14.00
2013,05,29,17,09,14.00
2013,05,29,17,10,14.00
2013,05,29,17,11,13.90
2013,05,29,17,12,13.90
2013,05,29,17,13,13.80
2013,05,29,17,14,13.80
2013,05,29,17,15,13.70
2013,05,29,17,16,13.70
2013,05,29,17,17,13.70
2013,05,29,17,18,13.70
2013,05,29,17,19,13.70